Vorticity
7 7 8 9 9 6 5 4 5 6 5 5 6 7 6 11 16 17 20 23 24 21 15 11 11 9 6 6 7 10 11 11 12 13 15 15 14 13 12 11 11 10 8 9 8 7 6 5 5 5 4 4 4 4 4 4 3 2 2 2 2 2 3 2 3 3 3 4 4 4 4 3 3 3 4 4 4 4 4 4 3 4 4 4 5 5 6 6
6 6 7 7 8 7 7 5 3 3 5 5 3 4 4 4 4 6 8 11 14 15 13 10 11 12 10 8 4 5 5 4 4 5 7 7 8 8 8 7 6 6 5 4 4 4 3 3 3 3 3 3 3 3 3 2 3 2 2 2 2 2 3 2 3 2 3 3 3 4 4 3 3 3 3 3 3 3 3 3 3 3 4 5 5 5 5 6
5 6 6 5 6 7 7 5 5 3 3 5 4 3 3 3 3 3 3 4 4 5 7 7 7 7 6 7 5 6 5 3 4 3 4 4 4 4 5 6 5 5 5 4 4 4 3 4 4 3 3 3 3 4 4 4 4 4 4 5 5 5 5 5 5 5 5 5 5 6 5 5 5 5 5 5 5 5 6 6 6 6 6 5 5 5 4 4
5 5 4 5 6 7 8 6 5 5 4 4 5 5 4 4 5 4 4 4 4 3 4 4 5 4 4 4 3 5 5 4 5 5 5 5 5 4 5 5 5 5 5 5 4 5 5 5 5 4 5 4 4 4 4 5 5 5 5 5 6 5 6 6 6 6 6 6 7 7 7 8 7 7 8 7 7 8 8 7 7 6 6 5 5 5 5 5
6 5 4 5 6 7 8 8 6 4 5 5 5 6 6 7 8 8 7 6 6 6 5 5 6 6 6 5 5 6 4 3 5 5 5 6 7 6 6 6 5 6 5 5 5 5 5 5 5 5 5 5 5 6 5 6 5 6 5 6 6 5 5 5 5 5 5 5 6 6 7 7 7 8 8 8 8 7 7 7 7 7 7 8 8 8 8 7
7 6 5 5 6 9 9 8 7 5 6 6 6 7 7 9 11 13 13 12 10 9 9 9 9 9 9 8 7 7 4 5 7 7 7 7 8 7 7 6 6 6 6 7 7 7 6 6 6 6 6 6 6 6 6 6 6 6 6 6 6 6 6 5 6 5 5 6 6 6 6 6 6 7 6 6 6 5 5 5 6 6 6 7 7 7 8 7
8 6 5 7 7 9 10 8 7 6 6 5 6 7 6 7 8 11 12 11 11 10 10 10 9 9 8 8 7 6 6 7 8 7 7 6 6 6 6 6 6 7 6 6 6 5 5 4 5 5 6 6 6 7 7 7 8 8 9 9 9 10 10 10 10 10 10 10 9 9 8 8 7 6 6 6 6 6 6 6 5 5 4 4 4 5 5 5
9 7 6 8 7 10 10 9 7 5 6 5 7 7 4 3 3 5 6 6 6 6 7 6 6 5 5 6 5 5 6 7 6 5 5 5 5 5 4 5 5 4 4 4 4 5 6 7 8 9 10 10 11 11 11 12 11 11 11 11 11 11 11 11 11 11 11 11 11 10 10 10 9 8 9 8 8 8 7 7 7 6 6 5 4 4 4 4
8 7 6 7 8 10 10 10 6 5 6 5 7 6 3 3 3 3 2 3 3 4 4 4 4 4 5 5 4 5 5 5 4 4 4 5 5 4 5 6 6 7 8 10 11 12 13 13 12 12 12 12 12 11 10 10 9 8 8 8 7 7 7 7 7 7 7 7 8 8 7 8 7 8 8 8 8 7 7 7 7 7 7 7 6 6 6 6
7 6 5 8 9 10 11 10 6 5 5 6 8 6 3 3 3 3 3 3 3 3 3 3 4 3 4 4 4 5 4 4 4 5 5 5 7 8 10 11 12 13 13 13 12 12 11 10 9 8 8 7 7 6 5 5 5 6 6 6 6 7 7 7 7 7 7 7 7 7 6 6 6 7 6 6 6 6 6 6 6 6 6 7 7 7 7 7
5 6 6 8 10 12 12 9 6 6 5 6 8 6 4 4 4 4 4 4 3 4 3 4 4 3 4 4 6 6 6 7 8 9 11 13 14 13 13 13 12 10 9 8 7 6 6 5 4 4 4 5 4 4 5 6 6 7 7 7 7 8 8 8 8 8 8 7 7 7 6 7 7 7 7 6 6 6 6 6 7 7 7 7 7 8 8 8
4 6 6 8 11 13 13 9 6 6 6 8 8 6 5 4 4 4 4 5 4 5 5 6 6 8 9 9 10 11 11 13 13 13 14 14 12 10 9 8 6 6 6 5 5 5 4 4 4 6 7 7 7 8 9 9 8 8 8 7 7 8 8 8 8 7 7 6 7 7 6 8 7 7 6 6 6 6 6 7 7 7 7 7 7 8 8 8
4 5 6 8 13 16 12 8 6 6 8 9 6 5 5 4 5 5 5 6 7 8 9 11 13 13 13 13 14 13 13 14 12 10 8 7 7 5 4 4 4 4 4 4 5 6 7 8 8 8 9 8 8 7 7 6 5 5 5 6 6 6 6 6 6 5 5 5 6 6 6 7 7 6 6 6 6 6 7 7 7 7 7 7 7 7 7 7
4 5 7 10 16 15 9 7 7 9 9 8 6 5 5 5 6 6 8 9 10 12 12 13 12 12 12 12 12 10 9 8 7 6 6 6 4 3 3 4 5 4 5 7 9 10 9 8 7 6 6 5 4 3 4 4 4 6 6 6 5 5 5 5 5 5 6 6 7 7 7 7 7 7 7 7 7 7 8 8 8 8 8 8 8 8 8 8
5 5 8 14 17 11 7 9 9 9 8 6 5 5 5 6 8 9 11 11 12 12 11 11 10 9 10 10 8 8 7 6 7 8 6 5 4 5 7 8 9 8 8 9 7 6 4 4 4 4 4 4 6 6 7 6 7 8 7 8 7 7 8 8 8 8 8 8 8 8 7 8 7 7 7 7 8 7 8 8 7 7 7 8 8 8 8 8
5 6 12 16 14 8 8 9 7 7 5 4 4 5 7 9 10 11 11 11 11 10 9 9 9 9 9 8 6 6 6 7 8 7 5 7 9 10 11 11 9 6 5 5 4 4 5 6 7 8 9 9 10 9 9 9 10 10 9 10 9 9 10 9 10 9 8 8 8 7 7 7 6 6 7 6 6 6 6 6 5 6 6 7 7 8 8 9
4 10 17 15 10 8 8 6 5 4 3 4 6 8 10 11 11 10 11 11 9 9 9 9 8 8 8 6 5 6 8 10 10 10 9 9 9 9 8 6 5 3 5 6 7 8 8 10 10 10 11 10 10 10 10 10 10 9 9 9 9 9 9 8 8 7 7 7 6 6 6 6 5 5 6 5 5 5 5 6 7 7 8 9 10 11 13 14
7 16 17 11 8 6 6 4 5 5 5 8 10 11 12 11 11 9 10 9 8 8 7 7 7 8 9 8 9 11 13 13 11 8 6 6 6 6 5 5 6 7 9 9 8 9 9 10 10 10 10 10 10 10 9 9 9 8 8 8 8 7 7 6 6 5 5 5 4 5 5 6 6 6 6 6 7 8 10 10 11 13 15 17 18 18 18 17
12 18 13 8 6 4 5 5 5 6 9 12 13 13 12 9 9 9 9 8 7 7 7 11 13 14 15 13 10 9 7 7 7 4 3 6 8 8 8 8 9 8 8 9 9 10 9 9 9 10 10 9 9 8 8 9 8 8 7 7 6 5 6 5 5 6 6 7 8 8 9 10 10 11 12 14 15 17 17 18 20 22 22 21 20 20 20 20
16 16 9 6 4 3 5 4 6 11 13 14 13 11 9 7 8 8 8 8 10 12 15 18 16 14 12 7 4 2 2 5 7 7 5 7 7 7 8 8 9 9 9 10 9 10 9 9 10 9 8 8 9 9 9 8 8 7 7 7 7 8 9 9 10 12 13 14 15 15 17 19 19 20 20 21 21 20 21 23 23 22 21 20 19 19 19 18
16 11 6 4 3 4 5 6 12 15 14 12 9 7 6 6 7 9 12 15 16 15 13 10 7 6 5 3 3 1 4 7 7 7 6 7 7 7 8 9 10 10 11 10 9 10 10 10 10 9 10 10 10 10 9 9 10 11 12 13 13 14 15 17 18 18 18 19 19 19 21 21 21 21 21 20 20 21 22 22 19 19 19 17 17 16 15 13
13 7 5 3 3 4 7 13 17 14 11 9 7 6 7 10 13 16 17 14 11 7 4 3 -0 2 7 8 4 3 7 8 6 7 8 8 9 9 10 11 11 11 11 10 10 10 10 10 10 10 11 10 10 11 12 13 14 15 16 16 16 17 18 18 18 17 18 18 18 18 17 19 18 19 19 18 19 20 19 17 16 17 16 12 13 13 11 10
8 6 5 3 3 8 13 16 14 10 8 6 7 10 13 18 17 15 10 4 4 3 5 6 -1 2 10 7 5 7 7 6 6 9 8 10 11 11 12 11 12 11 10 10 9 9 9 10 10 10 10 11 12 12 13 14 14 15 15 15 16 16 15 15 15 15 15 14 16 14 14 19 17 14 15 13 15 16 12 13 14 11 10 9 10 10 7 8
7 6 4 4 9 14 16 13 8 7 6 8 14 15 16 15 9 6 3 2 3 1 6 9 3 6 8 5 6 7 5 7 9 10 10 12 13 12 11 11 10 9 9 9 9 9 9 9 10 10 11 12 12 13 13 13 13 13 13 13 14 13 13 14 13 13 13 13 14 10 10 17 15 10 11 10 14 14 7 9 10 6 7 7 8 8 5 6
7 4 4 10 16 15 12 8 6 7 10 15 16 12 10 6 3 5 4 4 3 -0 6 9 5 6 5 5 7 5 7 10 9 10 12 13 12 10 10 10 8 8 9 8 8 8 8 9 9 10 11 11 11 11 10 11 11 11 12 13 12 12 12 12 11 11 11 12 12 9 6 10 13 10 7 8 12 10 4 6 7 5 7 7 8 7 5 6
4 5 12 16 15 10 7 7 9 12 15 15 10 6 6 4 4 7 5 5 4 2 6 7 5 5 5 5 5 6 11 11 10 13 13 11 10 10 9 8 7 8 7 7 8 8 8 9 9 10 10 9 10 9 10 11 11 12 13 12 10 9 9 8 9 7 8 11 9 7 4 6 15 12 4 7 10 7 6 7 7 6 6 6 6 6 5 6
7 14 17 12 8 7 7 11 14 16 14 9 5 4 5 4 5 5 4 6 4 4 7 6 5 5 4 6 7 10 12 11 13 14 11 10 10 9 8 7 7 7 7 8 8 7 8 9 10 10 9 10 10 10 12 10 11 12 9 8 6 5 7 7 7 6 7 10 6 4 3 5 16 13 2 7 9 6 7 7 7 7 6 6 6 5 6 5
14 16 11 6 7 8 12 16 15 13 9 5 4 4 5 5 4 3 4 4 3 6 8 5 5 5 6 8 9 12 12 12 14 12 10 11 9 8 7 6 7 8 8 8 7 8 9 9 10 11 10 11 11 11 11 9 9 8 5 6 6 6 8 6 6 6 6 9 5 3 4 5 15 14 5 8 8 5 7 5 5 6 4 6 7 7 7 5
14 8 5 7 10 14 16 14 10 7 5 5 5 5 6 5 3 3 5 4 5 9 8 5 5 6 8 11 12 13 12 12 12 10 10 10 8 8 7 7 8 8 8 7 8 9 10 10 11 11 11 11 11 10 9 7 7 7 7 8 6 7 7 4 6 7 6 8 5 4 5 3 12 14 6 7 5 3 7 5 5 5 4 7 7 6 5 4
6 4 8 12 14 15 13 8 6 6 5 6 6 5 6 3 2 6 5 3 7 10 6 5 7 8 10 12 12 13 12 12 11 11 10 9 9 8 7 8 9 9 8 8 9 10 10 12 11 11 11 10 10 9 7 7 7 8 9 6 6 7 4 5 8 5 4 6 5 5 3 1 11 14 5 3 3 3 7 8 8 6 6 8 6 5 5 6
4 9 12 14 14 11 8 5 6 6 6 6 4 4 4 2 4 7 5 6 10 8 5 6 9 10 11 12 12 13 13 12 11 10 10 9 9 9 9 10 9 9 9 9 11 11 11 12 11 10 10 9 9 8 7 8 7 8 7 5 6 4 4 7 7 3 4 7 6 4 3 11 21 15 4 3 3 4 7 10 10 9 9 8 5 5 7 8
10 13 13 13 10 7 6 6 6 6 7 6 3 2 2 3 5 7 7 9 9 6 6 8 9 10 11 11 12 13 12 12 11 11 11 10 10 10 9 10 9 10 11 12 13 13 13 13 12 11 10 10 10 8 8 8 6 7 7 6 5 3 6 7 5 6 7 6 6 7 13 22 19 11 12 14 12 11 9 8 8 7 6 2 -0 4 7 7
13 13 12 9 6 6 6 6 7 6 5 4 3 2 3 5 6 8 10 9 7 6 7 8 9 10 11 11 12 12 11 12 11 11 10 10 10 10 11 11 13 13 13 14 14 13 14 13 12 11 11 11 10 8 8 7 7 8 7 7 5 5 6 5 6 8 5 7 9 11 17 14 6 14 23 19 18 19 13 8 6 4 4 3 5 8 7 6
13 12 9 6 6 6 6 7 6 5 4 3 2 3 5 6 7 11 10 7 7 8 8 9 9 10 11 11 11 11 10 11 10 10 10 11 12 13 13 13 14 13 12 13 13 12 13 10 9 11 11 11 10 9 8 6 8 9 8 8 7 7 5 4 6 4 4 10 10 10 12 2 6 23 16 5 11 13 11 11 9 9 9 6 4 3 4 6
12 10 5 5 7 6 7 7 5 5 4 2 3 4 6 8 11 11 8 6 8 9 8 9 9 10 11 11 11 10 11 12 12 12 13 14 13 12 12 12 12 11 11 11 10 11 11 8 7 10 10 11 11 9 7 6 7 9 8 8 7 7 6 5 5 3 5 7 5 12 10 0 17 25 1 -5 7 6 7 12 9 8 4 -2 -2 0 4 6
9 5 4 6 7 7 7 6 5 5 3 3 5 6 8 11 11 9 7 8 9 8 8 9 10 11 10 10 12 12 13 14 13 14 14 13 12 11 11 11 11 11 11 11 10 11 11 8 7 9 10 11 10 9 8 6 6 8 8 8 7 7 7 6 5 6 7 4 5 8 6 16 35 20 -7 -3 4 -2 -0 2 -0 1 -1 -1 4 5 5 6
5 3 5 7 7 7 6 5 4 3 3 4 6 8 11 11 9 8 9 8 9 8 9 10 10 11 11 12 13 13 13 13 12 13 12 12 12 11 11 12 12 11 11 12 11 11 11 10 8 8 11 11 8 8 9 6 6 8 8 8 8 7 8 7 5 7 7 5 7 4 12 33 26 -5 -11 -1 -5 -9 -5 1 5 7 6 9 11 11 12 14
3 4 6 6 7 6 4 5 4 2 4 6 9 11 11 8 8 9 9 8 9 9 9 11 11 11 12 12 12 12 11 10 10 11 11 11 11 10 11 12 11 11 11 11 12 10 10 12 10 9 11 10 7 8 8 6 7 9 8 8 8 7 8 7 6 7 5 5 7 4 18 31 4 -15 -1 1 -6 2 8 12 15 12 12 15 15 17 17 15
4 6 6 7 7 5 4 5 3 2 5 8 11 11 8 7 9 9 8 9 10 9 11 12 11 11 12 11 11 11 10 9 9 10 10 10 10 10 10 10 9 9 9 10 11 9 9 12 12 11 12 10 7 8 9 8 9 10 9 9 8 7 7 7 7 7 4 6 6 6 20 29 10 2 9 6 10 19 15 13 14 12 15 16 14 14 12 9
7 7 7 7 6 6 7 6 2 3 8 10 11 9 7 8 10 8 9 10 10 11 12 12 12 12 12 11 11 10 10 9 9 9 10 10 9 9 10 10 9 8 8 9 9 9 9 10 11 12 12 11 9 10 10 10 11 12 12 12 10 8 7 7 7 9 6 5 7 8 16 20 13 9 10 14 19 15 8 10 12 12 13 12 11 10 8 9
8 8 6 6 6 7 8 5 2 6 11 11 9 8 8 9 9 9 10 10 11 12 12 12 12 11 11 11 10 10 10 9 9 9 9 9 9 9 9 9 9 8 8 8 7 8 8 7 9 10 10 10 10 9 9 10 11 12 13 12 11 9 8 4 5 10 9 7 11 11 8 6 7 10 15 16 12 6 8 13 13 12 10 7 8 7 7 9
8 7 6 6 6 7 7 4 5 10 11 9 8 8 9 9 9 9 10 10 11 10 10 10 9 8 9 8 7 8 8 7 8 8 8 8 8 8 8 8 9 8 8 9 8 7 8 7 7 8 7 8 8 6 6 7 9 11 11 11 10 10 9 3 1 5 7 10 15 8 -1 -1 2 9 14 10 6 6 10 12 11 11 9 7 7 6 7 9
6 7 7 6 6 6 5 5 9 11 10 9 9 9 9 9 9 9 9 9 9 8 7 7 6 6 6 6 6 6 7 7 6 6 8 8 7 7 8 8 8 8 7 8 8 8 9 8 8 8 7 7 7 6 5 5 6 8 8 9 11 10 7 2 1 2 3 10 11 -1 -5 -0 -0 5 10 4 1 6 9 8 8 9 10 9 7 7 9 9
5 6 7 7 6 6 5 7 12 11 9 9 9 8 9 8 7 8 8 6 6 7 6 4 5 5 3 5 6 4 5 6 5 5 6 7 7 7 8 9 8 9 8 8 8 7 8 8 7 9 9 9 9 8 6 6 7 7 6 7 9 9 6 2 0 2 3 5 4 -3 -2 2 1 3 5 0 -1 5 8 6 5 7 10 9 7 9 10 10
6 7 8 8 7 6 6 9 12 9 8 9 8 7 8 7 7 7 7 5 4 6 5 2 4 5 2 3 4 2 3 4 4 4 3 4 6 4 5 7 7 8 8 8 10 8 7 7 5 6 8 9 11 9 6 5 8 10 10 9 7 7 7 2 -3 -0 4 3 4 7 5 3 8 9 3 -1 1 3 5 6 5 7 8 7 8 8 9 10
6 7 7 7 8 8 8 10 11 8 7 8 7 6 7 6 7 6 6 6 4 3 5 3 2 5 2 2 3 2 2 3 3 3 2 3 4 3 4 5 4 6 6 7 10 9 9 10 6 4 6 6 9 11 7 4 7 10 12 14 13 10 7 3 -4 -3 3 2 4 13 7 -2 7 12 3 1 4 4 5 7 7 8 8 7 8 7 6 8
8 7 5 7 9 8 8 10 10 7 6 6 5 6 7 6 7 7 5 5 5 3 5 4 2 4 3 2 3 2 1 3 3 3 3 3 3 3 4 3 3 5 4 4 7 6 8 12 8 5 7 5 6 8 7 6 7 8 13 20 20 13 9 8 2 -2 0 -2 -2 8 6 -3 2 10 7 6 8 8 10 10 9 9 9 8 8 7 7 8
7 5 6 8 9 9 8 9 9 5 4 6 6 6 7 6 6 7 5 5 5 3 4 5 3 3 3 3 3 2 2 4 3 2 4 4 3 4 5 3 3 5 3 3 6 4 5 11 9 5 8 9 6 5 6 7 7 10 16 19 15 13 14 13 8 1 -2 -4 -2 4 6 4 5 6 6 7 8 10 14 15 12 10 10 10 9 8 9 9
6 6 9 9 9 10 9 7 7 4 2 6 6 5 7 6 4 5 5 4 4 3 4 5 3 3 3 3 4 3 3 4 4 3 4 5 4 4 5 4 4 5 4 3 6 4 3 9 9 4 8 13 8 4 4 5 8 13 15 13 12 16 15 8 6 6 -0 -1 5 5 3 9 11 4 1 5 8 10 13 15 14 12 11 11 9 8 10 10
7 7 9 9 9 10 8 4 4 4 3 5 6 4 5 5 3 4 5 3 3 4 3 2 4 5 3 3 4 3 2 5 5 3 4 6 4 4 5 5 4 5 4 4 6 4 2 8 8 2 8 15 10 5 4 4 9 13 11 13 17 16 10 5 5 8 3 3 10 7 2 8 12 5 2 4 5 8 11 13 14 13 12 10 9 9 10 10
8 10 10 10 9 8 6 3 3 4 3 4 5 4 3 3 2 4 4 0 1 5 3 1 3 4 2 4 6 2 2 6 6 4 5 5 5 5 5 5 5 5 4 5 6 4 4 7 5 2 6 13 10 6 5 6 9 11 11 16 18 11 6 5 5 6 6 7 11 9 5 8 9 6 5 4 4 7 10 12 14 14 11 9 9 9 10 10
9 11 9 9 9 6 4 4 4 3 3 4 5 3 3 3 1 2 3 0 0 4 3 2 4 3 1 5 6 2 2 6 6 5 5 5 6 6 5 5 6 4 5 7 4 4 7 5 3 3 6 10 11 7 5 8 9 9 14 19 15 7 4 5 8 9 8 9 9 6 7 10 9 6 5 5 5 7 8 12 15 14 10 8 9 10 10 10
Height
5785 5785 5785 5785 5785 5785 5785 5785 5785 5785 5785 5785 5785 5785 5785 5785 5785 5785 5785 5786 5786 5786 5785 5784 5785 5786 5786 5786 5786 5787 5788 5788 5788 5789 5789 5790 5790 5790 5789 5789 5789 5789 5789 5789 5789 5789 5789 5789 5789 5788 5788 5787 5787 5787 5787 5787 5787 5787 5786 5786 5786 5785 5785 5785 5785 5785 5785 5785 5785 5785 5784 5783 5783 5783 5783 5783 5782 5782 5781 5781 5780 5780 5779 5779 5778 5778 5777 5776
5785 5785 5785 5785 5785 5785 5785 5785 5785 5785 5785 5785 5786 5786 5786 5785 5785 5785 5786 5786 5786 5786 5785 5785 5786 5786 5786 5786 5786 5787 5787 5787 5788 5788 5789 5789 5789 5789 5789 5788 5788 5788 5788 5788 5788 5788 5788 5788 5787 5787 5786 5786 5785 5785 5785 5785 5785 5785 5784 5784 5784 5783 5783 5782 5782 5782 5782 5782 5782 5782 5781 5781 5780 5780 5780 5780 5779 5778 5778 5777 5777 5776 5776 5775 5775 5774 5773 5772
5786 5786 5786 5786 5785 5785 5785 5785 5786 5786 5786 5786 5786 5786 5786 5786 5785 5785 5785 5785 5785 5785 5785 5785 5786 5787 5787 5787 5787 5786 5786 5787 5787 5787 5788 5788 5788 5788 5787 5787 5787 5787 5787 5786 5786 5786 5786 5786 5785 5785 5785 5784 5784 5783 5783 5783 5783 5783 5782 5782 5781 5781 5780 5780 5780 5779 5779 5779 5779 5778 5778 5778 5778 5777 5777 5777 5776 5775 5775 5774 5774 5773 5772 5772 5771 5770 5769 5768
5787 5787 5786 5786 5786 5786 5785 5785 5785 5786 5786 5786 5786 5786 5786 5786 5786 5785 5785 5785 5785 5785 5785 5786 5786 5787 5787 5786 5786 5786 5786 5786 5786 5787 5787 5787 5787 5786 5786 5786 5785 5785 5785 5785 5785 5784 5784 5783 5783 5783 5782 5782 5782 5781 5781 5780 5780 5780 5780 5779 5779 5778 5777 5777 5776 5776 5776 5775 5775 5775 5775 5775 5774 5774 5774 5773 5772 5772 5771 5771 5770 5769 5768 5767 5766 5765 5765 5764
5787 5787 5787 5787 5786 5786 5786 5786 5785 5785 5785 5786 5786 5786 5786 5786 5786 5785 5785 5785 5785 5785 5785 5785 5786 5786 5786 5785 5785 5785 5785 5785 5786 5785 5785 5785 5785 5785 5784 5784 5784 5784 5783 5783 5783 5782 5782 5781 5781 5781 5780 5780 5779 5779 5778 5778 5778 5777 5777 5776 5776 5775 5774 5774 5773 5773 5772 5772 5772 5771 5771 5771 5770 5770 5770 5769 5768 5768 5767 5766 5765 5764 5764 5763 5762 5761 5760 5759
5788 5788 5787 5787 5787 5786 5786 5786 5786 5785 5785 5785 5786 5785 5785 5785 5785 5785 5785 5785 5785 5785 5785 5785 5785 5785 5784 5784 5784 5784 5784 5784 5784 5784 5784 5784 5784 5783 5783 5782 5782 5782 5782 5781 5781 5780 5780 5779 5778 5778 5778 5777 5777 5777 5776 5775 5775 5774 5774 5774 5773 5772 5772 5771 5771 5770 5769 5769 5769 5768 5768 5767 5767 5766 5766 5765 5765 5764 5763 5762 5761 5760 5759 5758 5758 5757 5756 5755
5788 5788 5787 5787 5787 5786 5786 5786 5786 5786 5786 5785 5785 5785 5785 5785 5785 5785 5785 5785 5785 5785 5785 5785 5784 5784 5784 5783 5783 5783 5783 5783 5783 5783 5783 5782 5782 5782 5782 5781 5781 5780 5780 5780 5779 5778 5777 5777 5776 5776 5776 5775 5775 5774 5774 5773 5772 5772 5771 5771 5770 5769 5769 5768 5768 5767 5767 5766 5766 5765 5764 5764 5763 5762 5762 5761 5761 5760 5759 5758 5757 5756 5755 5754 5753 5752 5751 5750
5788 5787 5787 5787 5786 5786 5786 5786 5786 5786 5786 5786 5785 5785 5785 5785 5785 5784 5784 5784 5784 5784 5784 5783 5783 5783 5783 5783 5782 5783 5783 5782 5782 5782 5781 5781 5781 5780 5780 5780 5779 5779 5778 5777 5777 5776 5775 5775 5774 5774 5773 5773 5773 5772 5771 5770 5770 5769 5769 5768 5767 5766 5766 5765 5765 5764 5764 5763 5762 5761 5761 5760 5759 5759 5758 5758 5757 5756 5755 5754 5754 5753 5751 5750 5749 5748 5747 5746
5787 5787 5787 5787 5786 5786 5786 5785 5785 5786 5786 5786 5785 5785 5785 5785 5784 5784 5784 5783 5783 5782 5782 5782 5782 5782 5782 5782 5782 5782 5781 5781 5780 5780 5780 5780 5779 5778 5778 5778 5777 5777 5776 5775 5775 5774 5773 5773 5772 5772 5771 5771 5771 5770 5769 5768 5767 5767 5766 5765 5764 5764 5763 5762 5762 5761 5760 5759 5758 5758 5757 5756 5755 5755 5754 5754 5753 5752 5751 5750 5749 5748 5747 5746 5745 5744 5743 5741
5787 5787 5787 5787 5786 5786 5786 5785 5785 5786 5786 5786 5785 5785 5785 5785 5784 5784 5783 5783 5782 5781 5781 5781 5781 5781 5781 5781 5781 5780 5780 5779 5778 5778 5778 5778 5777 5776 5776 5776 5775 5775 5774 5773 5773 5772 5772 5771 5771 5770 5769 5769 5768 5767 5766 5765 5765 5764 5763 5762 5762 5761 5760 5759 5758 5758 5757 5756 5755 5754 5753 5752 5751 5751 5750 5749 5748 5747 5746 5745 5744 5743 5743 5742 5741 5740 5738 5737
5788 5788 5787 5787 5786 5786 5786 5785 5785 5785 5786 5786 5785 5785 5785 5785 5784 5784 5783 5783 5782 5781 5781 5781 5780 5780 5780 5779 5779 5779 5778 5777 5777 5776 5776 5776 5775 5775 5774 5774 5773 5773 5772 5772 5771 5771 5770 5769 5769 5768 5767 5767 5766 5765 5764 5763 5762 5761 5760 5759 5758 5758 5757 5756 5755 5754 5753 5752 5752 5751 5750 5749 5748 5747 5746 5745 5743 5742 5741 5740 5739 5739 5738 5737 5736 5735 5733 5732
5788 5787 5787 5787 5786 5786 5786 5786 5785 5785 5785 5785 5785 5785 5785 5785 5784 5784 5783 5783 5782 5781 5781 5780 5780 5779 5778 5778 5777 5777 5776 5776 5776 5775 5775 5774 5774 5773 5773 5772 5772 5771 5771 5770 5770 5769 5768 5768 5767 5766 5765 5764 5763 5762 5761 5760 5759 5758 5757 5756 5755 5754 5753 5753 5752 5751 5750 5749 5748 5746 5745 5745 5744 5742 5741 5740 5739 5737 5736 5735 5734 5733 5732 5731 5730 5729 5728 5727
5788 5787 5787 5786 5786 5786 5786 5785 5785 5785 5785 5785 5785 5785 5785 5784 5784 5783 5783 5782 5781 5781 5780 5780 5779 5778 5777 5777 5776 5776 5775 5775 5775 5774 5774 5773 5773 5772 5772 5771 5770 5770 5769 5769 5768 5767 5766 5765 5764 5763 5762 5761 5760 5759 5758 5757 5756 5755 5754 5753 5752 5751 5749 5749 5747 5746 5745 5744 5743 5742 5741 5740 5739 5737 5736 5735 5734 5732 5731 5730 5729 5728 5727 5725 5724 5723 5722 5721
5787 5787 5786 5786 5786 5785 5785 5785 5785 5785 5785 5785 5784 5784 5784 5784 5783 5782 5782 5781 5780 5780 5779 5779 5778 5777 5777 5776 5776 5775 5775 5774 5774 5773 5773 5772 5772 5771 5770 5770 5769 5768 5768 5767 5766 5765 5764 5763 5762 5761 5760 5759 5758 5756 5755 5754 5753 5752 5751 5749 5748 5747 5745 5745 5743 5742 5741 5740 5739 5737 5736 5735 5734 5733 5731 5730 5728 5727 5726 5725 5724 5722 5721 5720 5719 5717 5716 5715
5787 5786 5786 5785 5785 5785 5785 5785 5784 5784 5784 5784 5784 5783 5783 5783 5782 5781 5780 5780 5779 5779 5778 5778 5777 5776 5776 5775 5775 5774 5774 5773 5773 5772 5772 5771 5770 5770 5769 5768 5767 5767 5766 5765 5764 5763 5762 5761 5760 5758 5757 5756 5755 5754 5753 5751 5750 5749 5748 5746 5745 5744 5742 5741 5740 5738 5737 5735 5734 5733 5732 5731 5729 5728 5726 5725 5724 5722 5721 5720 5718 5717 5716 5714 5713 5712 5711 5709
5786 5786 5785 5785 5785 5785 5784 5784 5784 5784 5783 5783 5783 5782 5782 5781 5781 5780 5779 5779 5778 5778 5777 5777 5776 5775 5775 5774 5774 5773 5773 5772 5771 5771 5770 5770 5769 5768 5767 5767 5766 5765 5765 5764 5762 5761 5760 5759 5757 5756 5755 5754 5752 5751 5750 5748 5747 5746 5744 5743 5742 5741 5739 5738 5736 5735 5733 5732 5731 5729 5728 5727 5725 5724 5722 5721 5719 5718 5716 5715 5713 5712 5711 5710 5708 5707 5706 5704
5785 5785 5785 5784 5784 5784 5784 5783 5783 5783 5783 5782 5782 5781 5781 5780 5779 5779 5778 5778 5777 5777 5776 5776 5775 5774 5774 5773 5773 5772 5771 5771 5770 5770 5769 5769 5768 5767 5766 5765 5765 5764 5763 5762 5760 5759 5757 5756 5755 5754 5752 5751 5750 5748 5747 5745 5744 5743 5741 5740 5739 5737 5736 5734 5733 5731 5730 5728 5727 5725 5724 5723 5721 5720 5718 5717 5715 5714 5712 5711 5709 5708 5706 5705 5703 5702 5700 5699
5784 5784 5784 5784 5783 5783 5783 5783 5782 5782 5782 5781 5781 5780 5780 5779 5779 5778 5778 5777 5776 5776 5775 5775 5774 5774 5773 5773 5772 5771 5771 5770 5770 5769 5768 5767 5767 5766 5765 5764 5763 5761 5760 5759 5758 5757 5755 5754 5752 5751 5750 5748 5747 5745 5744 5742 5741 5739 5738 5736 5735 5734 5732 5731 5729 5728 5726 5724 5723 5721 5720 5719 5717 5715 5714 5712 5710 5709 5707 5706 5705 5703 5702 5700 5699 5697 5696 5694
5784 5783 5783 5783 5783 5782 5782 5782 5782 5781 5781 5781 5780 5780 5779 5779 5778 5778 5777 5777 5776 5775 5775 5774 5774 5773 5772 5772 5772 5771 5770 5770 5769 5768 5767 5766 5765 5764 5763 5762 5760 5759 5758 5756 5755 5754 5752 5751 5750 5749 5747 5746 5744 5743 5741 5740 5738 5736 5735 5733 5732 5730 5729 5727 5725 5724 5722 5720 5719 5717 5716 5714 5712 5711 5709 5707 5706 5704 5702 5701 5700 5698 5697 5695 5694 5693 5691 5690
5783 5783 5782 5782 5782 5782 5781 5781 5781 5781 5780 5780 5780 5779 5779 5778 5778 5777 5777 5776 5776 5775 5774 5774 5773 5773 5772 5772 5771 5770 5770 5769 5768 5767 5765 5764 5763 5762 5761 5759 5758 5756 5755 5754 5752 5751 5750 5748 5747 5746 5745 5743 5742 5740 5738 5737 5735 5733 5731 5730 5728 5726 5725 5723 5721 5720 5718 5716 5715 5713 5711 5710 5708 5706 5704 5703 5701 5699 5698 5697 5695 5694 5693 5691 5690 5689 5687 5686
5782 5782 5782 5781 5781 5781 5781 5781 5781 5780 5780 5780 5779 5779 5779 5778 5777 5777 5776 5776 5775 5775 5774 5774 5773 5772 5772 5771 5770 5769 5768 5767 5766 5765 5764 5762 5761 5760 5759 5757 5756 5754 5753 5752 5750 5749 5747 5746 5745 5743 5742 5740 5738 5737 5735 5733 5732 5730 5728 5726 5724 5723 5721 5719 5718 5716 5714 5712 5711 5709 5707 5706 5704 5702 5701 5699 5697 5696 5694 5693 5692 5690 5689 5688 5687 5685 5684 5683
5782 5782 5781 5781 5781 5781 5781 5781 5780 5780 5780 5779 5779 5779 5778 5778 5777 5776 5776 5776 5775 5775 5774 5773 5773 5772 5771 5770 5769 5768 5767 5766 5764 5763 5762 5760 5759 5758 5756 5755 5754 5753 5751 5750 5748 5747 5745 5744 5742 5740 5739 5737 5735 5733 5732 5730 5728 5726 5724 5722 5721 5719 5717 5716 5714 5712 5710 5709 5707 5705 5703 5702 5700 5699 5697 5696 5694 5693 5692 5690 5689 5688 5686 5685 5684 5682 5681 5679
5781 5781 5781 5781 5781 5780 5780 5780 5780 5780 5780 5779 5779 5778 5778 5777 5777 5776 5776 5776 5775 5775 5774 5773 5772 5771 5770 5769 5768 5767 5765 5764 5763 5761 5760 5758 5757 5755 5754 5753 5752 5750 5749 5748 5746 5744 5743 5741 5739 5737 5736 5734 5732 5730 5728 5726 5724 5723 5721 5719 5717 5716 5714 5712 5711 5709 5707 5705 5704 5702 5701 5699 5697 5696 5695 5693 5692 5690 5689 5688 5686 5685 5683 5682 5681 5679 5677 5676
5781 5781 5781 5781 5781 5780 5780 5780 5780 5780 5779 5779 5778 5778 5778 5777 5777 5776 5776 5775 5775 5774 5773 5772 5771 5770 5769 5768 5767 5765 5764 5762 5761 5759 5758 5756 5755 5753 5752 5751 5750 5748 5747 5745 5744 5742 5740 5738 5736 5735 5733 5731 5729 5727 5725 5723 5721 5719 5718 5716 5714 5712 5711 5709 5707 5706 5704 5703 5701 5699 5698 5698 5695 5693 5692 5690 5689 5688 5686 5685 5684 5681 5680 5679 5677 5676 5674 5673
5781 5781 5781 5781 5780 5780 5780 5780 5780 5779 5779 5779 5778 5778 5778 5777 5777 5776 5776 5775 5774 5774 5773 5772 5771 5769 5768 5767 5766 5764 5762 5761 5759 5758 5756 5754 5753 5752 5750 5749 5747 5746 5744 5743 5741 5739 5738 5736 5734 5732 5730 5728 5726 5724 5723 5721 5719 5717 5715 5713 5711 5710 5708 5707 5705 5704 5702 5701 5699 5697 5695 5696 5694 5691 5689 5688 5687 5685 5683 5682 5680 5678 5677 5675 5674 5672 5671 5669
5780 5780 5780 5780 5780 5780 5780 5780 5780 5779 5779 5779 5778 5778 5778 5777 5777 5776 5776 5775 5774 5773 5772 5771 5770 5768 5767 5766 5764 5763 5761 5759 5757 5756 5754 5753 5751 5750 5748 5747 5746 5744 5742 5741 5739 5737 5735 5733 5732 5730 5728 5726 5724 5722 5720 5718 5716 5715 5713 5711 5709 5708 5706 5705 5703 5701 5700 5699 5697 5694 5692 5693 5692 5688 5685 5685 5684 5683 5680 5678 5677 5675 5673 5672 5671 5669 5667 5666
5780 5780 5780 5780 5780 5780 5780 5780 5779 5779 5779 5779 5779 5778 5778 5777 5777 5776 5775 5774 5773 5772 5771 5770 5769 5767 5766 5764 5763 5761 5759 5757 5755 5754 5752 5751 5750 5748 5747 5745 5744 5742 5740 5738 5737 5735 5733 5731 5730 5728 5726 5724 5722 5720 5718 5716 5714 5713 5711 5710 5708 5706 5704 5703 5701 5699 5698 5697 5695 5692 5689 5689 5690 5687 5682 5681 5680 5679 5677 5675 5673 5672 5670 5668 5667 5665 5663 5662
5780 5780 5780 5780 5780 5780 5780 5779 5779 5779 5779 5779 5779 5778 5778 5777 5777 5776 5775 5774 5773 5772 5770 5769 5768 5766 5765 5763 5761 5759 5757 5755 5754 5752 5751 5749 5748 5746 5745 5743 5742 5740 5738 5736 5735 5733 5731 5729 5727 5726 5724 5722 5720 5718 5716 5714 5713 5711 5710 5708 5706 5704 5702 5700 5699 5697 5696 5695 5692 5689 5687 5685 5686 5685 5680 5677 5676 5675 5673 5672 5670 5668 5666 5665 5663 5662 5660 5658
5780 5780 5780 5780 5780 5780 5779 5779 5779 5779 5779 5779 5779 5778 5778 5777 5776 5775 5774 5773 5772 5771 5769 5768 5766 5765 5763 5761 5759 5757 5755 5754 5752 5751 5749 5748 5746 5745 5743 5741 5740 5738 5736 5734 5733 5731 5729 5727 5725 5723 5721 5720 5718 5716 5715 5713 5711 5710 5707 5705 5703 5702 5700 5698 5697 5695 5693 5693 5690 5687 5684 5681 5683 5683 5677 5674 5673 5672 5670 5668 5666 5665 5663 5661 5660 5658 5656 5654
5779 5779 5779 5779 5779 5779 5779 5779 5779 5779 5779 5779 5779 5778 5778 5777 5776 5775 5774 5773 5771 5770 5769 5767 5765 5764 5762 5760 5758 5756 5754 5753 5751 5749 5748 5746 5745 5743 5741 5739 5738 5736 5734 5732 5730 5728 5727 5725 5723 5721 5719 5718 5716 5714 5713 5711 5709 5707 5705 5703 5700 5699 5698 5696 5694 5692 5690 5690 5688 5685 5682 5680 5679 5680 5676 5671 5670 5668 5667 5665 5663 5661 5659 5657 5655 5654 5652 5649
5779 5779 5779 5779 5779 5779 5779 5780 5780 5779 5779 5779 5779 5778 5777 5776 5775 5774 5773 5772 5770 5769 5768 5766 5764 5762 5760 5758 5757 5755 5753 5751 5750 5748 5746 5745 5743 5741 5739 5737 5736 5734 5732 5730 5728 5726 5724 5722 5721 5719 5717 5715 5714 5712 5711 5709 5706 5704 5702 5700 5698 5696 5694 5693 5691 5689 5687 5687 5685 5682 5681 5678 5676 5676 5674 5670 5667 5664 5662 5660 5659 5657 5655 5653 5651 5649 5647 5645
5779 5779 5779 5779 5779 5779 5780 5780 5780 5779 5779 5779 5778 5778 5777 5776 5775 5774 5772 5771 5770 5768 5767 5765 5763 5761 5759 5757 5756 5754 5752 5750 5748 5747 5745 5743 5741 5739 5737 5736 5734 5732 5730 5728 5726 5724 5722 5720 5718 5716 5715 5713 5711 5709 5708 5706 5704 5702 5700 5697 5695 5692 5690 5689 5688 5686 5684 5684 5682 5679 5677 5675 5674 5673 5671 5668 5665 5661 5657 5654 5653 5652 5650 5648 5646 5644 5642 5640
5779 5779 5779 5779 5780 5780 5780 5780 5780 5779 5779 5779 5778 5777 5776 5775 5774 5773 5772 5770 5769 5767 5766 5764 5762 5760 5758 5757 5755 5753 5751 5749 5747 5745 5743 5741 5740 5738 5736 5734 5732 5730 5728 5726 5724 5722 5720 5718 5716 5714 5712 5710 5708 5707 5705 5703 5701 5699 5697 5695 5692 5689 5686 5684 5682 5681 5680 5679 5679 5676 5673 5671 5670 5668 5666 5664 5661 5658 5654 5651 5648 5646 5645 5642 5640 5638 5637 5634
5779 5779 5779 5780 5780 5780 5780 5780 5780 5779 5779 5778 5778 5777 5776 5775 5774 5772 5771 5770 5768 5766 5765 5763 5761 5760 5758 5756 5754 5752 5750 5748 5746 5744 5742 5740 5738 5736 5734 5732 5730 5728 5726 5724 5722 5720 5718 5716 5713 5712 5710 5708 5706 5704 5702 5701 5699 5697 5695 5693 5690 5688 5684 5680 5678 5675 5674 5674 5675 5674 5671 5668 5666 5664 5662 5660 5658 5654 5650 5647 5644 5642 5640 5637 5634 5632 5630 5627
5779 5779 5780 5780 5780 5780 5780 5780 5780 5779 5779 5778 5778 5777 5776 5774 5773 5772 5770 5769 5767 5766 5764 5762 5761 5759 5757 5755 5753 5751 5749 5747 5745 5743 5741 5739 5737 5735 5733 5731 5729 5727 5725 5723 5721 5718 5716 5714 5712 5710 5708 5707 5705 5703 5701 5699 5697 5695 5693 5691 5688 5685 5682 5678 5675 5672 5670 5668 5670 5671 5669 5666 5665 5663 5660 5657 5654 5649 5644 5641 5639 5637 5635 5631 5629 5627 5623 5620
5779 5780 5780 5780 5780 5780 5780 5780 5780 5779 5779 5778 5777 5776 5775 5774 5772 5771 5769 5768 5766 5765 5763 5762 5760 5758 5756 5754 5752 5750 5748 5746 5744 5742 5740 5738 5736 5734 5732 5730 5728 5726 5724 5722 5719 5717 5715 5713 5711 5709 5707 5705 5703 5701 5699 5697 5695 5693 5691 5688 5686 5683 5680 5676 5672 5670 5667 5663 5664 5666 5665 5664 5663 5661 5658 5654 5649 5644 5639 5636 5634 5632 5629 5625 5623 5620 5617 5614
5780 5780 5780 5780 5780 5780 5780 5780 5780 5779 5778 5778 5777 5776 5774 5773 5772 5770 5769 5767 5766 5764 5763 5761 5759 5757 5755 5753 5751 5749 5747 5745 5743 5741 5739 5737 5735 5733 5731 5729 5727 5725 5723 5721 5719 5717 5714 5712 5709 5707 5705 5703 5701 5699 5697 5695 5692 5690 5688 5686 5683 5681 5678 5675 5670 5666 5663 5658 5657 5660 5661 5660 5659 5657 5653 5649 5644 5640 5637 5633 5630 5627 5623 5620 5618 5615 5611 5608
5780 5780 5780 5780 5780 5780 5780 5780 5779 5779 5778 5777 5776 5775 5774 5773 5771 5770 5768 5767 5765 5764 5762 5761 5759 5757 5755 5753 5751 5749 5747 5745 5743 5741 5739 5737 5735 5733 5731 5729 5726 5724 5722 5720 5718 5715 5713 5711 5708 5705 5703 5701 5699 5697 5695 5693 5690 5688 5686 5684 5681 5677 5675 5672 5668 5664 5659 5653 5650 5652 5657 5658 5656 5653 5648 5644 5640 5637 5634 5630 5626 5623 5619 5616 5613 5610 5606 5602
5780 5780 5780 5780 5780 5780 5780 5779 5779 5778 5778 5777 5776 5775 5773 5772 5770 5769 5768 5766 5765 5763 5762 5760 5758 5756 5755 5753 5751 5749 5747 5744 5742 5740 5738 5736 5734 5732 5730 5728 5726 5723 5721 5719 5717 5714 5712 5710 5707 5704 5702 5699 5697 5695 5693 5690 5688 5686 5684 5681 5678 5674 5671 5669 5666 5663 5658 5651 5646 5644 5648 5654 5652 5646 5642 5639 5636 5632 5628 5625 5622 5619 5616 5612 5608 5604 5600 5596
5780 5780 5780 5780 5780 5780 5780 5779 5779 5778 5777 5776 5775 5774 5773 5771 5770 5769 5768 5766 5765 5763 5762 5760 5758 5756 5754 5752 5751 5748 5746 5744 5742 5740 5738 5736 5734 5732 5730 5727 5725 5723 5720 5718 5716 5713 5711 5709 5706 5704 5701 5698 5695 5693 5691 5688 5686 5684 5681 5679 5676 5672 5668 5665 5663 5662 5657 5651 5646 5639 5640 5648 5647 5640 5637 5634 5630 5626 5621 5618 5617 5614 5611 5606 5602 5598 5594 5591
5780 5780 5780 5780 5780 5780 5780 5779 5779 5778 5777 5776 5775 5773 5772 5771 5770 5769 5768 5766 5765 5763 5761 5760 5758 5756 5754 5752 5750 5748 5746 5744 5742 5740 5738 5736 5733 5731 5729 5727 5724 5722 5719 5717 5714 5712 5710 5708 5705 5703 5700 5697 5694 5691 5689 5687 5684 5682 5679 5676 5673 5669 5666 5661 5658 5658 5655 5650 5646 5638 5636 5642 5641 5634 5632 5629 5624 5620 5616 5613 5611 5608 5604 5600 5596 5592 5588 5585
5780 5780 5780 5780 5780 5780 5779 5779 5778 5777 5776 5775 5774 5773 5772 5771 5770 5768 5767 5766 5764 5763 5761 5759 5758 5756 5754 5752 5750 5748 5746 5744 5742 5740 5737 5735 5733 5731 5728 5726 5723 5721 5719 5716 5713 5711 5708 5706 5704 5702 5699 5695 5692 5689 5687 5685 5682 5680 5677 5674 5671 5667 5664 5659 5654 5652 5651 5648 5645 5636 5631 5636 5635 5630 5627 5623 5618 5615 5611 5607 5605 5601 5598 5594 5589 5586 5582 5579
5780 5780 5780 5780 5780 5780 5779 5778 5778 5777 5776 5775 5774 5773 5771 5770 5769 5768 5767 5766 5764 5763 5761 5759 5758 5756 5754 5752 5750 5748 5746 5744 5741 5739 5737 5734 5732 5730 5728 5725 5723 5720 5718 5715 5713 5710 5707 5704 5702 5701 5699 5696 5692 5688 5685 5683 5680 5678 5675 5671 5668 5664 5661 5657 5652 5648 5646 5645 5643 5633 5626 5629 5630 5626 5622 5617 5612 5609 5606 5602 5599 5595 5592 5588 5583 5580 5576 5573
5780 5780 5780 5780 5780 5779 5779 5778 5777 5776 5775 5774 5773 5772 5771 5770 5769 5768 5767 5766 5764 5763 5761 5759 5757 5756 5754 5752 5750 5748 5745 5743 5741 5738 5736 5734 5731 5729 5727 5724 5722 5719 5716 5714 5711 5709 5706 5702 5699 5697 5696 5694 5691 5688 5684 5681 5678 5676 5673 5669 5665 5662 5658 5653 5650 5645 5641 5641 5639 5630 5622 5622 5625 5622 5618 5612 5607 5604 5602 5598 5594 5590 5587 5582 5578 5574 5571 5568
5780 5780 5780 5780 5779 5779 5778 5778 5777 5776 5775 5774 5773 5772 5771 5770 5769 5768 5767 5765 5764 5762 5761 5759 5757 5755 5753 5751 5749 5747 5745 5742 5740 5738 5735 5733 5730 5728 5725 5723 5720 5717 5715 5712 5710 5707 5705 5701 5697 5694 5692 5689 5686 5684 5680 5678 5676 5673 5670 5667 5663 5659 5655 5650 5646 5642 5637 5634 5632 5628 5620 5616 5619 5619 5614 5608 5603 5599 5598 5595 5590 5586 5582 5577 5573 5569 5566 5562
5780 5780 5780 5779 5779 5778 5778 5777 5776 5776 5775 5774 5773 5772 5771 5770 5769 5768 5766 5765 5763 5762 5760 5758 5756 5754 5752 5750 5748 5746 5744 5741 5739 5737 5734 5732 5729 5727 5724 5722 5719 5716 5713 5710 5708 5705 5703 5700 5696 5693 5691 5687 5683 5681 5677 5674 5672 5670 5667 5663 5659 5655 5651 5646 5642 5638 5635 5627 5624 5626 5619 5610 5613 5615 5608 5604 5600 5595 5592 5590 5586 5582 5576 5571 5567 5563 5560 5556
5780 5780 5780 5779 5778 5778 5777 5777 5776 5775 5775 5774 5773 5772 5771 5770 5769 5767 5766 5764 5763 5761 5759 5758 5756 5754 5752 5749 5747 5745 5743 5740 5738 5735 5733 5730 5728 5725 5722 5720 5717 5714 5711 5708 5705 5702 5700 5698 5694 5691 5689 5686 5682 5678 5674 5671 5669 5666 5664 5660 5656 5651 5646 5642 5638 5635 5631 5622 5617 5621 5616 5606 5606 5607 5601 5597 5595 5589 5586 5584 5581 5576 5570 5565 5561 5557 5553 5549
5780 5780 5779 5779 5778 5777 5777 5776 5776 5775 5774 5773 5772 5772 5770 5769 5768 5767 5765 5763 5762 5760 5758 5756 5754 5752 5750 5748 5746 5744 5741 5739 5736 5734 5731 5729 5726 5723 5720 5717 5715 5712 5709 5705 5702 5699 5696 5695 5692 5688 5687 5684 5679 5675 5671 5668 5665 5663 5660 5656 5651 5646 5641 5637 5633 5631 5626 5618 5613 5614 5611 5604 5602 5600 5595 5592 5588 5583 5580 5578 5574 5569 5564 5558 5554 5550 5547 5543
5779 5779 5779 5778 5778 5777 5777 5776 5775 5774 5774 5773 5772 5771 5770 5769 5767 5766 5764 5763 5761 5759 5757 5755 5753 5751 5749 5747 5744 5742 5739 5737 5735 5732 5730 5727 5724 5721 5718 5715 5712 5709 5706 5703 5699 5696 5692 5690 5687 5684 5683 5681 5676 5671 5668 5664 5661 5660 5657 5652 5647 5642 5637 5632 5628 5626 5621 5614 5610 5608 5603 5601 5600 5594 5589 5587 5583 5577 5574 5572 5568 5563 5557 5551 5547 5543 5540 5536
5779 5779 5778 5778 5777 5777 5776 5776 5775 5774 5773 5772 5771 5770 5769 5768 5766 5765 5763 5761 5760 5758 5756 5754 5752 5749 5747 5745 5742 5740 5738 5735 5732 5730 5727 5725 5722 5719 5716 5713 5710 5706 5703 5699 5696 5693 5688 5685 5682 5678 5676 5677 5673 5668 5664 5660 5657 5655 5653 5648 5643 5636 5631 5627 5623 5621 5616 5610 5606 5602 5597 5596 5596 5589 5583 5581 5577 5572 5568 5565 5562 5557 5549 5544 5540 5537 5533 5528
5779 5778 5778 5777 5777 5776 5776 5775 5774 5773 5773 5772 5771 5770 5768 5767 5765 5763 5762 5760 5758 5756 5754 5752 5750 5748 5745 5743 5740 5738 5735 5733 5730 5727 5725 5722 5719 5716 5713 5710 5706 5703 5700 5696 5693 5689 5685 5681 5678 5673 5670 5670 5668 5663 5659 5655 5653 5651 5647 5643 5638 5631 5626 5622 5619 5616 5612 5606 5602 5597 5592 5590 5589 5583 5578 5574 5569 5565 5561 5558 5555 5550 5542 5536 5533 5530 5526 5521
5778 5778 5777 5777 5776 5776 5775 5774 5774 5773 5772 5771 5770 5768 5767 5766 5764 5762 5760 5758 5756 5754 5752 5750 5748 5745 5743 5741 5738 5735 5733 5730 5728 5725 5722 5719 5716 5713 5710 5707 5703 5700 5697 5693 5689 5686 5681 5677 5673 5668 5663 5663 5661 5656 5652 5649 5648 5646 5643 5637 5631 5625 5620 5617 5614 5612 5608 5602 5596 5591 5588 5585 5581 5575 5571 5567 5563 5557 5554 5551 5548 5542 5535 5530 5527 5523 5519 5515